Time,TemperatureF,DewpointF,PressureIn,WindDirection,WindDirectionDegrees,WindSpeedMPH,WindSpeedGustMPH,Humidity,HourlyPrecipIn,Conditions,Clouds,dailyrainin,SoftwareType,DateUTC
2013-04-17 00:02:00,34.0,28.0,30.24,NNE,30,8.0,-999.0,80,-99.99,,,-99.99,,2013-04-17 05:02:00,
2013-04-17 00:12:00,34.0,30.0,30.25,NE,40,9.0,-999.0,86,-99.99,,,-99.99,,2013-04-17 05:12:00,
2013-04-17 00:22:00,34.0,30.0,30.25,NE,40,9.0,-999.0,86,-99.99,,,-99.99,,2013-04-17 05:22:00,
2013-04-17 00:32:00,34.0,28.0,30.24,NNE,30,10.0,15.0,80,-99.99,,,-99.99,,2013-04-17 05:32:00,
2013-04-17 00:42:00,34.0,28.0,30.24,NNE,30,10.0,15.0,80,-99.99,,,-99.99,,2013-04-17 05:42:00,
2013-04-17 00:52:00,34.0,30.0,30.24,NNE,20,8.0,-999.0,86,-99.99,,,-99.99,,2013-04-17 05:52:00,
2013-04-17 01:02:00,34.0,30.0,30.24,NNE,20,8.0,-999.0,86,-99.99,,,-99.99,,2013-04-17 06:02:00,
2013-04-17 01:12:00,34.0,30.0,30.24,NNE,20,9.0,-999.0,86,-99.99,,,-99.99,,2013-04-17 06:12:00,
2013-04-17 01:22:00,34.0,30.0,30.24,NNE,20,9.0,-999.0,86,-99.99,,,-99.99,,2013-04-17 06:22:00,
2013-04-17 01:32:00,34.0,30.0,30.24,NNE,30,12.0,16.0,86,-99.99,,,-99.99,,2013-04-17 06:32:00,
2013-04-17 01:42:00,34.0,30.0,30.24,NNE,30,12.0,16.0,86,-99.99,,,-99.99,,2013-04-17 06:42:00,
2013-04-17 01:52:00,34.0,30.0,30.25,North,10,9.0,-999.0,86,-99.99,,,-99.99,,2013-04-17 06:52:00,
2013-04-17 02:02:00,34.0,30.0,30.25,North,10,9.0,-999.0,86,-99.99,,,-99.99,,2013-04-17 07:02:00,
2013-04-17 02:12:00,34.0,30.0,30.25,North,10,9.0,-999.0,86,-99.99,,,-99.99,,2013-04-17 07:12:00,
2013-04-17 02:22:00,34.0,30.0,30.25,North,10,9.0,-999.0,86,-99.99,,,-99.99,,2013-04-17 07:22:00,
2013-04-17 02:32:00,34.0,30.0,30.24,North,10,12.0,-999.0,86,-99.99,,,-99.99,,2013-04-17 07:32:00,
2013-04-17 02:42:00,34.0,30.0,30.24,North,10,12.0,-999.0,86,-99.99,,,-99.99,,2013-04-17 07:42:00,
2013-04-17 02:52:00,34.0,30.0,30.24,NNE,20,10.0,15.0,86,-99.99,,,-99.99,,2013-04-17 07:52:00,
2013-04-17 03:02:00,34.0,30.0,30.24,NNE,20,10.0,15.0,86,-99.99,,,-99.99,,2013-04-17 08:02:00,
2013-04-17 03:12:00,34.0,30.0,30.22,NNE,30,12.0,18.0,86,-99.99,,,-99.99,,2013-04-17 08:12:00,
2013-04-17 03:22:00,34.0,30.0,30.22,NNE,30,12.0,18.0,86,-99.99,,,-99.99,,2013-04-17 08:22:00,
2013-04-17 03:32:00,32.0,30.0,30.21,North,10,10.0,16.0,92,-99.99,,,-99.99,,2013-04-17 08:32:00,
2013-04-17 03:42:00,32.0,30.0,30.21,North,10,10.0,16.0,92,-99.99,,,-99.99,,2013-04-17 08:42:00,
2013-04-17 03:52:00,32.0,30.0,30.20,North,10,10.0,17.0,92,-99.99,,,-99.99,,2013-04-17 08:52:00,
2013-04-17 04:02:00,32.0,30.0,30.20,North,10,10.0,17.0,92,-99.99,,,-99.99,,2013-04-17 09:02:00,
2013-04-17 04:12:00,32.0,30.0,30.18,North,360,14.0,18.0,92,-99.99,,,-99.99,,2013-04-17 09:12:00,
2013-04-17 04:22:00,32.0,30.0,30.18,North,360,14.0,18.0,92,-99.99,,,-99.99,,2013-04-17 09:22:00,
2013-04-17 04:33:00,32.0,30.0,30.18,North,10,13.0,20.0,92,-99.99,,,-99.99,,2013-04-17 09:33:00,
2013-04-17 04:42:00,32.0,30.0,30.18,North,10,13.0,20.0,92,-99.99,,,-99.99,,2013-04-17 09:42:00,
2013-04-17 04:52:00,32.0,30.0,30.16,North,10,15.0,20.0,92,-99.99,,,-99.99,,2013-04-17 09:52:00,
2013-04-17 05:02:00,32.0,30.0,30.16,North,10,15.0,20.0,92,-99.99,,,-99.99,,2013-04-17 10:02:00,
2013-04-17 05:12:00,32.0,30.0,30.16,North,10,13.0,21.0,92,-99.99,,,-99.99,,2013-04-17 10:12:00,
2013-04-17 05:23:00,32.0,30.0,30.16,North,10,13.0,21.0,92,-99.99,,,-99.99,,2013-04-17 10:23:00,
2013-04-17 05:32:00,32.0,30.0,30.17,NNE,20,10.0,16.0,92,-99.99,,,-99.99,,2013-04-17 10:32:00,
2013-04-17 05:42:00,32.0,30.0,30.17,NNE,20,10.0,16.0,92,-99.99,,,-99.99,,2013-04-17 10:42:00,
2013-04-17 05:52:00,32.0,28.0,30.17,NNE,30,12.0,18.0,86,-99.99,,,-99.99,,2013-04-17 10:52:00,
2013-04-17 06:02:00,32.0,28.0,30.17,NNE,30,12.0,18.0,86,-99.99,,,-99.99,,2013-04-17 11:02:00,
2013-04-17 06:12:00,32.0,28.0,30.20,NNE,30,9.0,-999.0,86,-99.99,,,-99.99,,2013-04-17 11:12:00,
2013-04-17 06:22:00,32.0,28.0,30.20,NNE,30,9.0,-999.0,86,-99.99,,,-99.99,,2013-04-17 11:22:00,
2013-04-17 06:32:00,32.0,30.0,30.13,North,10,16.0,21.0,92,-99.99,,,-99.99,,2013-04-17 11:32:00,
2013-04-17 06:42:00,32.0,30.0,30.13,North,10,16.0,21.0,92,-99.99,,,-99.99,,2013-04-17 11:42:00,
2013-04-17 06:52:00,32.0,30.0,30.16,North,360,13.0,22.0,92,-99.99,,,-99.99,,2013-04-17 11:52:00,
2013-04-17 07:02:00,32.0,30.0,30.16,North,360,13.0,22.0,92,-99.99,,,-99.99,,2013-04-17 12:02:00,
2013-04-17 07:12:00,32.0,30.0,30.19,North,360,12.0,16.0,92,-99.99,,,-99.99,,2013-04-17 12:12:00,
2013-04-17 07:22:00,32.0,30.0,30.19,North,360,12.0,16.0,92,-99.99,,,-99.99,,2013-04-17 12:22:00,
2013-04-17 07:32:00,32.0,30.0,30.17,North,10,13.0,-999.0,92,-99.99,,,-99.99,,2013-04-17 12:32:00,
2013-04-17 07:42:00,32.0,30.0,30.17,North,10,13.0,-999.0,92,-99.99,,,-99.99,,2013-04-17 12:42:00,
2013-04-17 07:52:00,32.0,28.0,30.17,North,360,14.0,20.0,86,-99.99,,,-99.99,,2013-04-17 12:52:00,
2013-04-17 08:02:00,32.0,28.0,30.17,North,360,14.0,20.0,86,-99.99,,,-99.99,,2013-04-17 13:02:00,
2013-04-17 08:12:00,32.0,28.0,30.16,NNE,20,13.0,18.0,86,-99.99,,,-99.99,,2013-04-17 13:12:00,
2013-04-17 08:22:00,32.0,28.0,30.16,NNE,20,13.0,18.0,86,-99.99,,,-99.99,,2013-04-17 13:22:00,
2013-04-17 08:32:00,32.0,28.0,30.15,NNE,20,14.0,21.0,86,-99.99,,,-99.99,,2013-04-17 13:32:00,
2013-04-17 08:42:00,32.0,28.0,30.15,NNE,20,14.0,21.0,86,-99.99,,,-99.99,,2013-04-17 13:42:00,
2013-04-17 08:52:00,34.0,30.0,30.14,North,10,14.0,20.0,86,-99.99,,,-99.99,,2013-04-17 13:52:00,
2013-04-17 09:02:00,34.0,30.0,30.14,North,10,14.0,20.0,86,-99.99,,,-99.99,,2013-04-17 14:02:00,
2013-04-17 09:12:00,34.0,30.0,30.12,NNE,20,14.0,22.0,86,-99.99,,,-99.99,,2013-04-17 14:12:00,
2013-04-17 09:22:00,34.0,30.0,30.12,NNE,20,14.0,22.0,86,-99.99,,,-99.99,,2013-04-17 14:22:00,
2013-04-17 09:32:00,34.0,28.0,30.10,NNE,20,15.0,22.0,80,-99.99,,,-99.99,,2013-04-17 14:32:00,
2013-04-17 09:42:00,34.0,28.0,30.10,NNE,20,15.0,22.0,80,-99.99,,,-99.99,,2013-04-17 14:42:00,
2013-04-17 09:52:00,34.0,30.0,30.08,North,10,14.0,18.0,86,-99.99,,,-99.99,,2013-04-17 14:52:00,
2013-04-17 10:02:00,34.0,30.0,30.08,North,10,14.0,18.0,86,-99.99,,,-99.99,,2013-04-17 15:02:00,
2013-04-17 10:12:00,34.0,30.0,30.09,North,10,13.0,18.0,86,-99.99,,,-99.99,,2013-04-17 15:12:00,
2013-04-17 10:22:00,34.0,30.0,30.09,North,10,13.0,18.0,86,-99.99,,,-99.99,,2013-04-17 15:22:00,
2013-04-17 10:33:00,34.0,30.0,30.08,North,10,14.0,-999.0,86,-99.99,,,-99.99,,2013-04-17 15:33:00,
2013-04-17 10:42:00,34.0,30.0,30.08,North,10,14.0,-999.0,86,-99.99,,,-99.99,,2013-04-17 15:42:00,
2013-04-17 10:53:00,34.0,30.0,30.09,North,360,13.0,18.0,86,-99.99,,,-99.99,,2013-04-17 15:53:00,
2013-04-17 11:03:00,34.0,30.0,30.09,North,360,13.0,18.0,86,-99.99,,,-99.99,,2013-04-17 16:03:00,
2013-04-17 11:12:00,34.0,30.0,30.10,North,10,13.0,18.0,86,-99.99,,,-99.99,,2013-04-17 16:12:00,
2013-04-17 11:22:00,34.0,30.0,30.10,North,10,13.0,18.0,86,-99.99,,,-99.99,,2013-04-17 16:22:00,
2013-04-17 11:32:00,36.0,30.0,30.10,North,10,12.0,16.0,80,-99.99,,,-99.99,,2013-04-17 16:32:00,
2013-04-17 11:42:00,36.0,30.0,30.10,North,10,12.0,16.0,80,-99.99,,,-99.99,,2013-04-17 16:42:00,
2013-04-17 11:52:00,34.0,32.0,30.09,North,10,12.0,20.0,93,-99.99,,,-99.99,,2013-04-17 16:52:00,
2013-04-17 12:02:00,34.0,32.0,30.09,North,10,12.0,20.0,93,-99.99,,,-99.99,,2013-04-17 17:02:00,
2013-04-17 12:12:00,34.0,34.0,30.09,North,10,12.0,17.0,100,-99.99,,,-99.99,,2013-04-17 17:12:00,
2013-04-17 12:22:00,34.0,34.0,30.09,North,10,12.0,17.0,100,-99.99,,,-99.99,,2013-04-17 17:22:00,
2013-04-17 12:33:00,34.0,34.0,30.08,North,10,13.0,17.0,100,-99.99,,,-99.99,,2013-04-17 17:33:00,
2013-04-17 12:42:00,34.0,34.0,30.08,North,10,13.0,17.0,100,-99.99,,,-99.99,,2013-04-17 17:42:00,
2013-04-17 12:52:00,34.0,34.0,30.07,North,10,13.0,17.0,100,-99.99,,,-99.99,,2013-04-17 17:52:00,
2013-04-17 13:02:00,34.0,34.0,30.07,North,10,13.0,17.0,100,-99.99,,,-99.99,,2013-04-17 18:02:00,
2013-04-17 13:12:00,34.0,34.0,30.04,North,10,16.0,21.0,100,-99.99,,,-99.99,,2013-04-17 18:12:00,
2013-04-17 13:22:00,34.0,34.0,30.04,North,10,16.0,21.0,100,-99.99,,,-99.99,,2013-04-17 18:22:00,
2013-04-17 13:32:00,34.0,34.0,30.03,North,10,15.0,22.0,100,-99.99,,,-99.99,,2013-04-17 18:32:00,
2013-04-17 13:42:00,34.0,34.0,30.03,North,10,15.0,22.0,100,-99.99,,,-99.99,,2013-04-17 18:42:00,
2013-04-17 13:52:00,34.0,34.0,30.02,North,360,16.0,21.0,100,-99.99,,,-99.99,,2013-04-17 18:52:00,
2013-04-17 14:02:00,34.0,34.0,30.02,North,360,16.0,21.0,100,-99.99,,,-99.99,,2013-04-17 19:02:00,
2013-04-17 14:12:00,34.0,34.0,30.01,North,10,14.0,22.0,100,-99.99,,,-99.99,,2013-04-17 19:12:00,
2013-04-17 14:22:00,34.0,34.0,30.01,North,10,14.0,22.0,100,-99.99,,,-99.99,,2013-04-17 19:22:00,
2013-04-17 14:32:00,36.0,36.0,30.01,North,10,13.0,18.0,100,-99.99,,,-99.99,,2013-04-17 19:32:00,
2013-04-17 14:42:00,36.0,36.0,30.01,North,10,13.0,18.0,100,-99.99,,,-99.99,,2013-04-17 19:42:00,
2013-04-17 14:52:00,36.0,36.0,29.99,North,10,15.0,21.0,100,-99.99,,,-99.99,,2013-04-17 19:52:00,
2013-04-17 15:02:00,36.0,36.0,29.99,North,10,15.0,21.0,100,-99.99,,,-99.99,,2013-04-17 20:02:00,
2013-04-17 15:12:00,36.0,36.0,29.98,North,360,14.0,20.0,100,-99.99,,,-99.99,,2013-04-17 20:12:00,
2013-04-17 15:22:00,36.0,36.0,29.98,North,360,14.0,20.0,100,-99.99,,,-99.99,,2013-04-17 20:22:00,
2013-04-17 15:32:00,36.0,36.0,29.97,North,10,15.0,-999.0,100,-99.99,,,-99.99,,2013-04-17 20:32:00,
2013-04-17 15:42:00,36.0,36.0,29.97,North,10,15.0,-999.0,100,-99.99,,,-99.99,,2013-04-17 20:42:00,
2013-04-17 15:52:00,37.0,37.0,29.98,NNE,20,13.0,18.0,100,-99.99,,,-99.99,,2013-04-17 20:52:00,
2013-04-17 16:02:00,37.0,37.0,29.98,NNE,20,13.0,18.0,100,-99.99,,,-99.99,,2013-04-17 21:02:00,
2013-04-17 16:12:00,36.0,36.0,29.97,NNE,30,15.0,21.0,100,-99.99,,,-99.99,,2013-04-17 21:12:00,
2013-04-17 16:22:00,36.0,36.0,29.97,NNE,30,15.0,21.0,100,-99.99,,,-99.99,,2013-04-17 21:22:00,
2013-04-17 16:33:00,36.0,36.0,29.96,North,360,16.0,23.0,100,-99.99,,,-99.99,,2013-04-17 21:33:00,
2013-04-17 16:42:00,36.0,36.0,29.96,North,360,16.0,23.0,100,-99.99,,,-99.99,,2013-04-17 21:42:00,
2013-04-17 16:53:00,36.0,36.0,29.95,North,360,14.0,23.0,100,-99.99,,,-99.99,,2013-04-17 21:53:00,
2013-04-17 17:02:00,36.0,36.0,29.95,North,360,14.0,23.0,100,-99.99,,,-99.99,,2013-04-17 22:02:00,
2013-04-17 17:12:00,36.0,36.0,29.95,North,350,16.0,24.0,100,-99.99,,,-99.99,,2013-04-17 22:12:00,
2013-04-17 17:22:00,36.0,36.0,29.95,North,350,16.0,24.0,100,-99.99,,,-99.99,,2013-04-17 22:22:00,
2013-04-17 17:33:00,36.0,36.0,29.96,North,350,14.0,22.0,100,-99.99,,,-99.99,,2013-04-17 22:33:00,
2013-04-17 17:42:00,36.0,36.0,29.96,North,350,14.0,22.0,100,-99.99,,,-99.99,,2013-04-17 22:42:00,
2013-04-17 17:53:00,34.0,34.0,29.94,North,350,20.0,24.0,100,-99.99,,,-99.99,,2013-04-17 22:53:00,
2013-04-17 18:02:00,34.0,34.0,29.94,North,350,20.0,24.0,100,-99.99,,,-99.99,,2013-04-17 23:02:00,
2013-04-17 18:12:00,34.0,34.0,29.94,North,360,18.0,25.0,100,-99.99,,,-99.99,,2013-04-17 23:12:00,
2013-04-17 18:22:00,34.0,34.0,29.94,North,360,18.0,25.0,100,-99.99,,,-99.99,,2013-04-17 23:22:00,
2013-04-17 18:32:00,34.0,34.0,29.96,North,10,17.0,27.0,100,-99.99,,,-99.99,,2013-04-17 23:32:00,
2013-04-17 18:42:00,34.0,34.0,29.96,North,10,17.0,27.0,100,-99.99,,,-99.99,,2013-04-17 23:42:00,
2013-04-17 18:52:00,34.0,34.0,29.97,North,350,18.0,23.0,100,-99.99,,,-99.99,,2013-04-17 23:52:00,
2013-04-17 19:02:00,34.0,34.0,29.97,North,350,18.0,23.0,100,-99.99,,,-99.99,,2013-04-18 00:02:00,
2013-04-17 19:12:00,34.0,34.0,29.97,North,350,16.0,22.0,100,-99.99,,,-99.99,,2013-04-18 00:12:00,
2013-04-17 19:22:00,34.0,34.0,29.97,North,350,16.0,22.0,100,-99.99,,,-99.99,,2013-04-18 00:22:00,
2013-04-17 19:32:00,34.0,34.0,29.99,North,360,14.0,21.0,100,-99.99,,,-99.99,,2013-04-18 00:32:00,
2013-04-17 19:42:00,34.0,34.0,29.99,North,360,14.0,21.0,100,-99.99,,,-99.99,,2013-04-18 00:42:00,
2013-04-17 19:52:00,34.0,34.0,29.97,North,350,15.0,20.0,100,-99.99,,,-99.99,,2013-04-18 00:52:00,
2013-04-17 20:02:00,34.0,34.0,29.97,North,350,15.0,20.0,100,-99.99,,,-99.99,,2013-04-18 01:02:00,
2013-04-17 20:12:00,32.0,32.0,29.95,North,350,17.0,23.0,100,-99.99,,,-99.99,,2013-04-18 01:12:00,
2013-04-17 20:22:00,32.0,32.0,29.95,North,350,17.0,23.0,100,-99.99,,,-99.99,,2013-04-18 01:22:00,
2013-04-17 20:32:00,32.0,32.0,29.93,North,350,21.0,28.0,100,-99.99,,,-99.99,,2013-04-18 01:32:00,
2013-04-17 20:42:00,32.0,32.0,29.93,North,350,21.0,28.0,100,-99.99,,,-99.99,,2013-04-18 01:42:00,
2013-04-17 20:52:00,32.0,32.0,29.95,South,170,21.0,25.0,100,-99.99,,,-99.99,,2013-04-18 01:52:00,
2013-04-17 21:02:00,32.0,32.0,29.95,South,170,21.0,25.0,100,-99.99,,,-99.99,,2013-04-18 02:02:00,
2013-04-17 21:12:00,32.0,32.0,29.96,South,170,17.0,24.0,100,-99.99,,,-99.99,,2013-04-18 02:12:00,
2013-04-17 21:22:00,32.0,32.0,29.96,South,170,17.0,24.0,100,-99.99,,,-99.99,,2013-04-18 02:22:00,
2013-04-17 21:32:00,32.0,32.0,29.98,North,350,20.0,25.0,100,-99.99,,,-99.99,,2013-04-18 02:32:00,
2013-04-17 21:42:00,32.0,32.0,29.98,North,350,20.0,25.0,100,-99.99,,,-99.99,,2013-04-18 02:42:00,
2013-04-17 21:52:00,32.0,32.0,29.98,North,350,20.0,25.0,100,-99.99,,,-99.99,,2013-04-18 02:52:00,
2013-04-17 22:02:00,32.0,32.0,29.98,North,350,16.0,24.0,100,-99.99,,,-99.99,,2013-04-18 03:02:00,
2013-04-17 22:12:00,32.0,32.0,29.98,North,350,21.0,27.0,100,-99.99,,,-99.99,,2013-04-18 03:12:00,
2013-04-17 22:22:00,32.0,32.0,29.98,North,350,21.0,27.0,100,-99.99,,,-99.99,,2013-04-18 03:22:00,
2013-04-17 22:33:00,32.0,32.0,29.98,North,350,16.0,27.0,100,-99.99,,,-99.99,,2013-04-18 03:33:00,
2013-04-17 22:43:00,32.0,32.0,29.98,North,350,16.0,27.0,100,-99.99,,,-99.99,,2013-04-18 03:43:00,
2013-04-17 22:53:00,32.0,32.0,29.98,South,170,16.0,22.0,100,-99.99,,,-99.99,,2013-04-18 03:53:00,
2013-04-17 23:03:00,32.0,32.0,29.98,South,170,16.0,22.0,100,-99.99,,,-99.99,,2013-04-18 04:03:00,
2013-04-17 23:13:00,32.0,32.0,29.97,North,350,16.0,23.0,100,-99.99,,,-99.99,,2013-04-18 04:13:00,
2013-04-17 23:23:00,32.0,32.0,29.97,North,350,16.0,23.0,100,-99.99,,,-99.99,,2013-04-18 04:23:00,
2013-04-17 23:33:00,32.0,32.0,29.95,South,170,21.0,28.0,100,-99.99,,,-99.99,,2013-04-18 04:33:00,
2013-04-17 23:43:00,32.0,32.0,29.95,South,170,21.0,28.0,100,-99.99,,,-99.99,,2013-04-18 04:43:00,
2013-04-17 23:53:00,32.0,32.0,29.93,South,170,17.0,24.0,100,-99.99,,,-99.99,,2013-04-18 04:53:00,